W5HRH Weather Reports


Display with metric or nautical units.
time (UTC)temp
F
wind
direction
speed
MPH
gust
MPH
rain 1hr
in
rain 24hr
in
rain mn
in
humidity
%
barometer
mb
20260906165004 88 52 0.0 0.0 0.00 0.01 0.00 75 1015.6
20260906164504 88 53 0.0 0.0 0.00 0.01 0.00 75 1015.6
20260906164005 88 321 0.0 0.0 0.00 0.01 0.00 76 1015.8
20260906163504 88 319 0.0 0.0 0.00 0.01 0.00 76 1015.8
20260906163004 87 319 0.0 0.0 0.00 0.01 0.00 76 1015.7
20260906162504 87 319 0.0 0.0 0.00 0.01 0.00 77 1015.7
20260906162005 88 319 0.0 0.0 0.00 0.01 0.00 77 1015.8
20260906161510 88 320 0.0 0.0 0.00 0.01 0.00 78 1015.7
20260906161005 88 169 0.0 0.0 0.00 0.01 0.00 77 1015.7
20260906160503 88 169 0.0 0.0 0.00 0.01 0.00 78 1015.7
20260906160004 88 169 0.0 0.0 0.00 0.01 0.00 79 1015.8
20260906155502 88 169 0.0 0.0 0.00 0.01 0.00 77 1015.9
20260906155001 88 138 0.0 0.0 0.00 0.01 0.00 78 1016.0
20260906154501 88 138 0.0 0.0 0.00 0.01 0.00 79 1015.9
20260906154100 87 92 0.0 0.0 0.00 0.01 0.00 80 1015.8
20260906153602 87 91 0.0 0.0 0.00 0.01 0.00 80 1015.8
20260906153058 87 90 0.0 0.0 0.00 0.01 0.00 79 1015.8
20260906152558 87 90 0.0 0.0 0.00 0.01 0.00 82 1015.8
20260906152056 87 90 0.0 0.0 0.00 0.01 0.00 84 1015.8
20260906151559 86 90 0.0 0.0 0.00 0.01 0.00 84 1015.7
20260906151053 85 36 0.0 0.0 0.00 0.01 0.00 85 1015.9
20260906150554 85 36 0.0 0.0 0.00 0.01 0.00 87 1015.8
20260906150051 85 36 0.0 0.0 0.00 0.01 0.00 86 1015.8
20260906145551 85 36 0.0 0.0 0.00 0.01 0.00 86 1015.8
20260906145051 84 57 0.0 0.0 0.00 0.01 0.00 87 1016.0
20260906144550 84 59 0.0 0.0 0.00 0.01 0.00 88 1015.8
20260906144048 84 57 0.0 0.0 0.00 0.01 0.00 89 1015.8
20260906143548 84 60 0.0 0.0 0.00 0.01 0.00 90 1015.7
20260906143049 83 74 0.0 0.0 0.00 0.01 0.00 92 1015.8
20260906142545 82 74 0.0 0.0 0.00 0.01 0.00 92 1015.8
20260906142045 82 74 0.0 0.0 0.00 0.01 0.00 92 1015.7
20260906141543 82 74 0.0 0.0 0.00 0.01 0.00 92 1015.8
20260906141043 82 74 0.0 0.0 0.00 0.01 0.00 93 1015.9
20260906140543 82 74 0.0 0.0 0.00 0.01 0.00 93 1015.8
20260906140042 81 74 0.0 0.0 0.00 0.01 0.00 93 1015.7
20260906135542 82 74 0.0 0.0 0.00 0.01 0.00 93 1015.7
20260906135042 82 74 0.0 0.0 0.00 0.01 0.00 94 1015.7
20260906134540 81 74 0.0 0.0 0.00 0.01 0.00 95 1015.5
20260906134040 81 74 0.0 0.0 0.00 0.01 0.00 95 1015.5
20260906133539 81 74 0.0 0.0 0.00 0.01 0.00 96 1015.5
20260906133038 80 74 0.0 0.0 0.00 0.01 0.00 96 1015.5
20260906132539 79 74 0.0 0.0 0.00 0.01 0.00 95 1015.5
20260906132038 79 74 0.0 0.0 0.00 0.01 0.00 95 1015.4
20260906131543 78 74 0.0 0.0 0.00 0.01 0.00 95 1015.4
20260906131039 78 74 0.0 0.0 0.00 0.01 0.00 95 1015.4
20260906130534 78 74 0.0 0.0 0.00 0.01 0.00 95 1015.4
20260906130036 78 74 0.0 0.0 0.00 0.01 0.00 94 1015.3
20260906125532 78 74 0.0 0.0 0.00 0.01 0.00 94 1015.3
20260906125032 77 74 0.0 0.0 0.00 0.01 0.00 94 1015.2
20260906124532 77 74 0.0 0.0 0.00 0.01 0.00 94 1015.3
20260906124033 77 74 0.0 0.0 0.00 0.01 0.00 94 1015.2
20260906123530 77 74 0.0 0.0 0.00 0.01 0.00 94 1015.0
20260906123031 77 74 0.0 0.0 0.00 0.01 0.00 93 1014.9
20260906122529 77 74 0.0 0.0 0.00 0.01 0.00 93 1014.9
20260906122030 77 74 0.0 0.0 0.00 0.01 0.00 93 1014.9
20260906121529 77 74 0.0 0.0 0.00 0.01 0.00 93 1014.8
20260906121028 77 74 0.0 0.0 0.00 0.01 0.00 92 1014.7
20260906120527 77 74 0.0 0.0 0.00 0.01 0.00 92 1014.6
20260906120026 77 74 0.0 0.0 0.00 0.01 0.00 91 1014.7
20260906115525 77 74 0.0 0.0 0.00 0.01 0.00 91 1014.5
20260906115025 78 74 0.0 2.0 0.00 0.01 0.00 90 1014.5
20260906114523 78 74 1.0 3.0 0.00 0.01 0.00 90 1014.4
20260906114022 78 75 1.0 7.0 0.00 0.01 0.00 89 1014.5
20260906113526 79 47 2.0 8.0 0.00 0.01 0.00 89 1014.4
20260906113022 80 178 1.0 3.0 0.00 0.01 0.00 92 1014.4
20260906112520 80 178 0.0 1.0 0.00 0.01 0.00 92 1014.5
20260906112019 79 178 0.0 0.0 0.00 0.01 0.00 92 1014.4
20260906111518 79 178 0.0 0.0 0.00 0.01 0.00 92 1014.5
20260906111017 79 178 0.0 0.0 0.00 0.01 0.00 92 1014.4
20260906110517 79 178 0.0 0.0 0.00 0.01 0.00 91 1014.4
20260906110017 79 178 0.0 0.0 0.00 0.01 0.00 91 1014.3
20260906105516 80 178 0.0 0.0 0.00 0.01 0.00 91 1014.3
20260906105016 80 178 0.0 0.0 0.00 0.01 0.00 91 1014.3
20260906104528 80 178 0.0 0.0 0.00 0.01 0.00 91 1014.2
20260906104015 80 178 0.0 0.0 0.00 0.01 0.00 91 1014.2
20260906103514 80 178 0.0 0.0 0.00 0.01 0.00 91 1014.1
20260906103014 80 178 0.0 0.0 0.00 0.01 0.00 90 1014.0
20260906102513 80 178 0.0 0.0 0.00 0.01 0.00 90 1014.0
20260906102013 80 178 0.0 0.0 0.00 0.01 0.00 91 1013.9
20260906101513 80 178 0.0 0.0 0.00 0.01 0.00 90 1013.8
20260906101012 80 178 0.0 0.0 0.00 0.01 0.00 90 1013.9
20260906100516 80 178 0.0 0.0 0.00 0.01 0.00 90 1013.9
20260906100012 80 178 0.0 0.0 0.00 0.01 0.00 90 1013.8
20260906095511 80 178 0.0 0.0 0.00 0.01 0.00 90 1013.9
20260906095011 80 178 0.0 0.0 0.00 0.01 0.00 90 1013.9
20260906094525 80 178 0.0 0.0 0.00 0.01 0.00 90 1013.9
20260906094012 80 178 0.0 0.0 0.00 0.01 0.00 89 1013.9
20260906093513 80 178 0.0 0.0 0.00 0.01 0.00 89 1013.9
20260906093011 81 178 0.0 0.0 0.00 0.01 0.00 89 1013.8
20260906092509 81 178 0.0 0.0 0.00 0.01 0.00 89 1013.7
20260906092011 81 178 0.0 0.0 0.00 0.01 0.00 89 1013.6
20260906091511 81 178 0.0 0.0 0.00 0.01 0.00 89 1013.5
20260906091008 81 178 0.0 0.0 0.00 0.01 0.00 89 1013.5
20260906090507 81 178 0.0 0.0 0.00 0.01 0.00 88 1013.5
20260906090007 81 178 0.0 0.0 0.00 0.01 0.00 88 1013.5
20260906085509 81 178 0.0 0.0 0.00 0.01 0.00 88 1013.5
20260906085007 81 178 0.0 0.0 0.00 0.01 0.00 88 1013.4
20260906084506 81 178 0.0 0.0 0.00 0.01 0.00 88 1013.5
20260906084005 81 178 0.0 0.0 0.00 0.01 0.00 88 1013.5
20260906083505 81 178 0.0 0.0 0.00 0.01 0.00 88 1013.6
20260906083013 81 178 0.0 0.0 0.00 0.01 0.00 87 1013.5
20260906082505 81 178 0.0 0.0 0.00 0.01 0.00 87 1013.6
20260906082003 82 178 0.0 0.0 0.00 0.01 0.00 87 1013.6
20260906081503 82 178 0.0 0.0 0.00 0.01 0.00 87 1013.6
20260906081003 82 178 0.0 1.0 0.00 0.01 0.00 87 1013.6
20260906080503 82 178 0.0 2.0 0.00 0.01 0.00 87 1013.7
20260906080002 82 179 0.0 2.0 0.00 0.01 0.00 87 1013.6
20260906075502 82 179 0.0 1.0 0.00 0.01 0.00 87 1013.6
20260906075002 82 179 0.0 1.0 0.00 0.01 0.00 87 1013.7
20260906074502 82 179 0.0 0.0 0.00 0.01 0.00 87 1013.7
20260906074002 82 179 0.0 0.0 0.00 0.01 0.00 87 1013.7
20260906073500 82 179 0.0 0.0 0.00 0.01 0.00 87 1013.8
20260906073059 82 179 0.0 0.0 0.00 0.01 0.00 87 1014.0
20260906072601 82 179 0.0 0.0 0.00 0.01 0.00 87 1014.0
20260906072100 82 179 0.0 0.0 0.00 0.01 0.00 86 1014.0
20260906071602 82 179 0.0 0.0 0.00 0.01 0.00 87 1014.0
20260906071059 82 179 0.0 0.0 0.00 0.01 0.00 86 1014.0
20260906070558 82 179 0.0 0.0 0.00 0.01 0.00 86 1014.0
20260906070058 82 179 0.0 0.0 0.00 0.01 0.00 86 1014.0
20260906065559 82 179 0.0 0.0 0.00 0.01 0.00 86 1014.0
20260906065058 82 179 0.0 1.0 0.00 0.01 0.00 86 1014.1
20260906064557 82 179 0.0 1.0 0.00 0.01 0.00 86 1014.1
20260906064057 82 179 0.0 1.0 0.00 0.01 0.00 86 1014.2
20260906063558 82 179 0.0 1.0 0.00 0.01 0.00 86 1014.2
20260906063058 82 179 0.0 1.0 0.00 0.01 0.00 86 1014.2
20260906062600 82 179 0.0 1.0 0.00 0.01 0.00 86 1014.1
20260906062056 82 179 0.0 1.0 0.00 0.01 0.00 86 1014.1
20260906061559 82 179 0.0 0.0 0.00 0.01 0.00 86 1014.0
20260906061055 82 179 0.0 0.0 0.00 0.01 0.00 86 1014.0
20260906060555 82 179 0.0 1.0 0.00 0.01 0.00 86 1014.0
20260906060056 82 179 0.0 1.0 0.00 0.01 0.00 85 1014.0
20260906055554 82 179 0.0 0.0 0.00 0.01 0.00 85 1014.2
20260906055054 82 179 0.0 0.0 0.00 0.01 0.00 85 1014.2
20260906054554 82 179 0.0 3.0 0.00 0.01 0.00 85 1014.3
20260906054054 82 179 0.0 3.0 0.00 0.01 0.00 85 1014.2
20260906053555 82 175 0.0 3.0 0.00 0.01 0.00 85 1014.2
20260906053054 82 180 1.0 3.0 0.00 0.01 0.00 85 1014.0
20260906052554 82 207 0.0 3.0 0.00 0.01 0.00 85 1014.2
20260906052052 83 176 1.0 4.0 0.00 0.01 0.00 85 1014.0
20260906051600 82 184 1.0 4.0 0.00 0.01 0.00 85 1014.1
20260906051051 83 164 1.0 4.0 0.01 0.01 0.00 85 1014.2
20260906050550 83 181 0.0 3.0 0.01 0.01 0.00 86 1014.2
20260906050050 83 163 1.0 4.0 0.01 0.01 0.00 86 1014.2
20260906045551 83 170 0.0 4.0 0.01 0.01 0.01 85 1014.3
20260906045050 83 210 1.0 5.0 0.01 0.01 0.01 85 1014.2
20260906044549 83 180 0.0 3.0 0.01 0.01 0.01 85 1014.2
20260906044048 83 167 0.0 1.0 0.01 0.01 0.01 85 1014.3
20260906043549 83 167 0.0 2.0 0.01 0.01 0.01 85 1014.3
20260906043050 83 167 0.0 3.0 0.01 0.01 0.01 85 1014.4
20260906042549 83 167 0.0 5.0 0.01 0.01 0.01 85 1014.1
20260906042048 83 170 1.0 5.0 0.01 0.01 0.01 85 1014.1
20260906041554 83 173 1.0 5.0 0.01 0.01 0.01 85 1014.2
20260906041048 83 138 0.0 0.0 0.00 0.00 0.00 85 1014.2
20260906040548 83 138 0.0 0.0 0.00 0.00 0.00 85 1014.2
20260906040047 83 137 0.0 0.0 0.00 0.00 0.00 85 1014.4
20260906035547 83 161 0.0 0.0 0.00 0.00 0.00 85 1014.5
20260906035051 83 159 0.0 0.0 0.00 0.00 0.00 85 1014.3
20260906034549 83 159 0.0 0.0 0.00 0.00 0.00 85 1014.3
20260906034046 83 157 0.0 0.0 0.00 0.00 0.00 85 1014.4
20260906033549 83 179 0.0 0.0 0.00 0.00 0.00 85 1014.3
20260906033046 83 165 0.0 4.0 0.00 0.00 0.00 85 1014.3
20260906032548 83 163 1.0 4.0 0.00 0.00 0.00 85 1014.3
20260906032046 83 128 1.0 7.0 0.00 0.00 0.00 85 1014.4
20260906031547 83 171 2.0 6.0 0.00 0.00 0.00 86 1014.4
20260906031046 83 136 0.0 2.0 0.00 0.00 0.00 86 1014.4
20260906030546 83 135 0.0 0.0 0.00 0.00 0.00 86 1014.3
20260906030046 83 135 0.0 0.0 0.00 0.00 0.00 86 1014.2
20260906025548 83 135 0.0 0.0 0.00 0.00 0.00 86 1014.1
20260906025045 83 135 0.0 0.0 0.00 0.00 0.00 85 1014.1
20260906024559 83 135 0.0 0.0 0.00 0.00 0.00 85 1013.9
20260906024045 83 135 0.0 1.0 0.00 0.00 0.00 85 1013.9
20260906023545 83 135 0.0 2.0 0.00 0.00 0.00 85 1013.7
20260906023044 84 135 0.0 2.0 0.00 0.00 0.00 84 1013.7
20260906022547 84 101 0.0 2.0 0.00 0.00 0.00 84 1013.7
20260906022044 84 87 0.0 1.0 0.00 0.00 0.00 84 1013.6
20260906021543 84 84 0.0 1.0 0.00 0.00 0.00 83 1013.5
20260906021043 84 124 0.0 1.0 0.00 0.00 0.00 83 1013.5
20260906020543 84 125 0.0 1.0 0.00 0.00 0.00 82 1013.4
20260906020048 85 125 0.0 2.0 0.00 0.00 0.00 82 1013.4
20260906015542 85 141 0.0 3.0 0.00 0.00 0.00 82 1013.3
20260906015045 85 156 0.0 1.0 0.00 0.00 0.00 82 1013.3
20260906014552 85 159 0.0 2.0 0.00 0.00 0.00 82 1013.2
20260906014043 85 101 0.0 4.0 0.00 0.00 0.00 82 1013.2
20260906013544 85 115 0.0 4.0 0.00 0.00 0.00 81 1013.2
20260906013044 85 148 0.0 2.0 0.00 0.00 0.00 81 1013.1
20260906012541 85 108 0.0 3.0 0.00 0.00 0.00 81 1013.0
20260906012041 85 136 0.0 3.0 0.00 0.00 0.00 80 1013.0
20260906011543 85 143 0.0 3.0 0.00 0.00 0.00 80 1013.0
20260906011040 85 128 0.0 3.0 0.00 0.00 0.00 80 1013.0
20260906010540 85 140 0.0 3.0 0.00 0.00 0.00 80 1012.9
20260906010040 85 139 0.0 1.0 0.00 0.00 0.00 79 1012.9
20260906005539 85 348 0.0 0.0 0.00 0.01 0.00 79 1013.1
20260906005040 85 348 0.0 0.0 0.00 0.01 0.00 79 1013.1
20260906004542 85 348 0.0 1.0 0.00 0.01 0.00 79 1013.0
20260906004039 85 348 0.0 1.0 0.00 0.01 0.00 79 1013.0
20260906003539 85 348 0.0 4.0 0.00 0.01 0.00 78 1013.0
20260906003049 85 344 1.0 4.0 0.00 0.01 0.00 78 1013.1
20260906002539 85 63 0.0 4.0 0.00 0.01 0.00 79 1013.2
20260906002039 85 49 1.0 4.0 0.00 0.01 0.00 79 1013.2
20260906001538 85 66 0.0 1.0 0.00 0.01 0.00 80 1013.2
20260906001038 85 49 0.0 8.0 0.00 0.01 0.00 80 1013.2
20260906000538 85 41 0.0 8.0 0.00 0.01 0.00 80 1013.3
20260906000038 85 48 0.0 2.0 0.00 0.01 0.00 82 1013.3
20260905235539 85 5 0.0 0.0 0.00 0.01 0.00 83 1013.5
20260905235041 85 5 0.0 1.0 0.00 0.01 0.00 83 1013.6
20260905234538 85 5 0.0 1.0 0.00 0.01 0.00 83 1013.5
20260905234038 85 5 0.0 0.0 0.00 0.01 0.00 84 1013.5
20260905233538 85 5 0.0 0.0 0.00 0.01 0.00 84 1013.5
20260905233038 85 5 0.0 0.0 0.00 0.01 0.00 85 1013.6
20260905232537 85 5 0.0 0.0 0.00 0.01 0.00 85 1013.5
20260905232037 84 5 0.0 0.0 0.00 0.01 0.00 85 1013.5
20260905231539 84 5 0.0 0.0 0.00 0.01 0.00 85 1013.4
20260905231037 84 5 0.0 0.0 0.00 0.01 0.00 85 1013.2
20260905230539 84 5 0.0 0.0 0.00 0.01 0.00 85 1013.1
20260905230036 84 5 0.0 0.0 0.00 0.01 0.00 86 1013.2
20260905225537 84 5 0.0 0.0 0.00 0.01 0.00 86 1013.2
20260905225037 83 5 0.0 1.0 0.00 0.01 0.00 86 1013.1
20260905224536 83 5 0.0 1.0 0.00 0.01 0.00 85 1013.0
20260905224036 83 5 0.0 1.0 0.00 0.01 0.00 85 1013.0
20260905223536 83 5 0.0 1.0 0.00 0.01 0.00 85 1012.9
20260905223035 83 5 0.0 1.0 0.00 0.01 0.00 84 1013.0
20260905222534 83 5 0.0 1.0 0.00 0.01 0.00 84 1013.0
20260905222036 83 329 0.0 2.0 0.00 0.01 0.00 83 1013.0
20260905221535 82 305 0.0 2.0 0.00 0.01 0.00 82 1012.9
20260905221038 82 185 0.0 2.0 0.00 0.01 0.00 82 1013.0
20260905220534 82 193 0.0 1.0 0.00 0.01 0.00 84 1012.9
20260905220041 82 194 0.0 6.0 0.00 0.01 0.00 83 1012.8
20260905215534 83 238 0.0 6.0 0.00 0.01 0.00 83 1012.8
20260905215036 83 192 0.0 4.0 0.00 0.01 0.00 85 1012.7
20260905214533 84 193 0.0 5.0 0.00 0.01 0.00 84 1012.8
20260905214033 84 181 0.0 5.0 0.00 0.01 0.00 83 1012.7
20260905213532 85 189 1.0 5.0 0.00 0.01 0.00 81 1012.8
20260905213040 87 188 2.0 5.0 0.00 0.01 0.00 77 1013.0
20260905212536 89 227 1.0 5.0 0.00 0.01 0.00 74 1013.0
20260905212032 91 265 1.0 5.0 0.00 0.01 0.00 69 1013.3
20260905211539 92 78 0.0 4.0 0.00 0.01 0.00 65 1013.3
20260905211032 92 77 0.0 4.0 0.00 0.01 0.00 64 1013.2
20260905210534 92 85 1.0 4.0 0.00 0.01 0.00 64 1013.2
20260905210030 92 92 0.0 2.0 0.00 0.01 0.00 64 1013.2
20260905205529 92 88 0.0 6.0 0.00 0.01 0.00 65 1013.2
20260905205030 93 148 1.0 6.0 0.00 0.01 0.00 64 1013.1
20260905204530 93 89 1.0 6.0 0.00 0.01 0.00 63 1012.9
20260905204028 93 165 2.0 6.0 0.00 0.01 0.00 65 1012.9
20260905203531 93 161 0.0 3.0 0.00 0.01 0.00 64 1013.0
20260905203027 93 171 0.0 7.0 0.00 0.01 0.00 64 1013.0
20260905202526 93 144 3.0 7.0 0.00 0.01 0.00 63 1013.1
20260905202026 93 124 0.0 3.0 0.00 0.01 0.00 63 1013.3
20260905201525 93 360 0.0 6.0 0.00 0.01 0.00 65 1013.2
20260905201026 93 153 0.0 7.0 0.00 0.01 0.00 66 1013.3
20260905200522 92 145 2.0 7.0 0.00 0.01 0.00 66 1013.3
20260905200020 92 150 3.0 8.0 0.00 0.01 0.00 65 1013.5
20260905195521 92 136 2.0 7.0 0.00 0.01 0.00 66 1013.5
20260905195019 92 106 2.0 8.0 0.00 0.01 0.00 68 1013.6
20260905194518 92 61 1.0 8.0 0.00 0.01 0.00 68 1013.6
20260905194017 92 150 2.0 9.0 0.00 0.01 0.00 68 1013.6
20260905193516 92 177 5.0 10.0 0.00 0.01 0.00 68 1013.6
20260905193013 92 53 4.0 13.0 0.00 0.01 0.00 68 1013.6
20260905192515 92 89 3.0 13.0 0.00 0.01 0.00 69 1013.8
20260905192010 92 328 3.0 11.0 0.00 0.01 0.00 67 1013.8
20260905191509 92 101 3.0 11.0 0.00 0.01 0.00 67 1014.0
20260905191009 92 86 1.0 8.0 0.00 0.01 0.00 68 1014.1
20260905190506 91 94 2.0 10.0 0.00 0.01 0.00 68 1014.1
20260905190010 91 208 3.0 10.0 0.00 0.01 0.00 68 1014.2
20260905185506 92 186 4.0 9.0 0.00 0.01 0.00 67 1014.2
20260905185005 93 82 2.0 5.0 0.00 0.01 0.00 63 1014.2
20260905184504 92 144 0.0 6.0 0.00 0.01 0.00 64 1014.1
20260905184003 92 170 2.0 6.0 0.00 0.01 0.00 64 1014.3
20260905183501 92 142 1.0 3.0 0.00 0.01 0.00 63 1014.4
20260905183101 92 76 0.0 4.0 0.00 0.01 0.00 64 1014.2
20260905182558 91 67 0.0 4.0 0.00 0.01 0.00 65 1014.5
20260905182058 91 71 1.0 3.0 0.00 0.01 0.00 66 1014.6
20260905181602 91 87 0.0 4.0 0.00 0.01 0.00 66 1014.8
20260905181057 91 44 2.0 5.0 0.00 0.01 0.00 66 1015.1
20260905180600 91 299 3.0 5.0 0.00 0.01 0.00 66 1015.1
20260905175557 91 355 0.0 3.0 0.00 0.01 0.00 65 1015.2
20260905175058 91 346 1.0 3.0 0.00 0.01 0.00 66 1015.2
20260905174557 91 89 0.0 4.0 0.00 0.01 0.00 65 1015.4
20260905174057 91 90 1.0 4.0 0.00 0.01 0.00 64 1015.4
20260905173557 91 323 1.0 4.0 0.00 0.01 0.00 64 1015.5
20260905173056 91 355 1.0 4.0 0.00 0.01 0.00 63 1015.6
20260905172556 92 61 1.0 4.0 0.00 0.01 0.00 63 1015.6
20260905172055 92 360 1.0 4.0 0.00 0.01 0.00 65 1015.6
20260905171554 91 348 1.0 5.0 0.00 0.01 0.00 64 1015.6
20260905171055 91 24 3.0 6.0 0.00 0.01 0.00 64 1015.6
20260905170553 91 22 2.0 6.0 0.00 0.01 0.00 64 1015.5
20260905170058 91 334 0.0 4.0 0.00 0.01 0.00 65 1015.6
20260905165551 91 165 0.0 3.0 0.00 0.01 0.00 65 1015.6